Weather History for McConnell AFB, KS

Change the Weather History Date:

Wednesday, January 8, 2014

  Actual Average Record
Temperature  
Mean Temperature 34 °F -  
Max Temperature 40 °F 42 °F 69 °F (2002)
Min Temperature 28 °F 23 °F 3 °F (2015)
Degree Days  
Heating Degree Days 31    
Moisture  
Dew Point 21 °F    
Average Humidity 62    
Maximum Humidity 92    
Minimum Humidity 46    
Precipitation  
Precipitation 0.00 in - - ()
Sea Level Pressure  
Sea Level Pressure 30.23 in    
Wind  
Wind Speed 8 mph (East)    
Max Wind Speed 12 mph    
Max Gust Speed -    
Visibility 10 miles    
Events      
Averages and records for this station are not official NWS values.
T = Trace of Precipitation, MM = Missing Value Source: NWS Daily Summary

Daily Weather History Graph

Daily Weather History Graph

Search for Another Location

Airport:

Trip Planner

Search our weather history database for the weather conditions in past years. The results will help you decide how hot, cold, wet, or windy it might be!

Date:

Astronomy

Jan. 08, 2014 Rise Set
Actual Time 7:44 AM CST 5:27 PM CST
Civil Twilight 7:15 AM CST 5:56 PM CST
Nautical Twilight 6:42 AM CST 6:29 PM CST
Astronomical Twilight 6:11 AM CST 7:00 PM CST
Moon 12:17 PM CST (1/8) 12:55 AM CST (1/8)
Length of Visible Light 10h 41m
Length of Day
9h 43m
First Quarter, 56% of the Moon is Illuminated
Jan 8
First Quarter
Jan 15
Full
Jan 23
Last Quarter
Jan 30
New
Feb 6
First Quarter

Hourly Weather History & Observations

Time (CST) Temp. Windchill Dew Point Humidity Pressure Visibility Wind Dir Wind Speed Gust Speed Precip Events Conditions
12:58 AM 34.2 °F 25.7 °F 19.2 °F 54% 30.14 in 10.0 mi SE 11.5 mph - N/A   Partly Cloudy
1:58 AM 33.1 °F 24.9 °F 17.8 °F 53% 30.15 in 10.0 mi SSE 10.4 mph - N/A   Clear
2:58 AM 31.5 °F 24.2 °F 19.0 °F 60% 30.14 in 10.0 mi ESE 8.1 mph - N/A   Clear
3:58 AM 31.5 °F 22.9 °F 17.6 °F 57% 30.14 in 10.0 mi ESE 10.4 mph - N/A   Clear
4:58 AM 30.7 °F 22.0 °F 17.2 °F 57% 30.13 in 10.0 mi ESE 10.4 mph - N/A   Clear
5:58 AM 30.2 °F 21.3 °F 16.7 °F 57% 30.16 in 10.0 mi ESE 10.4 mph - N/A   Mostly Cloudy
6:58 AM 28.9 °F 21.1 °F 16.5 °F 60% 30.17 in 10.0 mi ESE 8.1 mph - N/A   Clear
7:58 AM 28.2 °F 22.0 °F 16.2 °F 61% 30.20 in 10.0 mi East 5.8 mph - N/A   Overcast
8:58 AM 28.8 °F 20.9 °F 16.5 °F 60% 30.22 in 10.0 mi ENE 8.1 mph - N/A   Mostly Cloudy
9:58 AM 30.4 °F 22.9 °F 18.0 °F 60% 30.25 in 10.0 mi East 8.1 mph - N/A   Mostly Cloudy
10:58 AM 34.0 °F 28.8 °F 18.5 °F 53% 30.25 in 10.0 mi East 5.8 mph - N/A   Scattered Clouds
11:58 AM 35.1 °F 32.2 °F 19.0 °F 52% 30.23 in 10.0 mi SE 3.5 mph - N/A   Clear
12:58 PM 38.5 °F - 19.8 °F 47% 30.21 in 10.0 mi Variable 2.3 mph - N/A   Clear
1:58 PM 40.3 °F 35.5 °F 21.0 °F 46% 30.20 in 10.0 mi NE 6.9 mph - N/A   Clear
2:58 PM 39.0 °F 34.0 °F 22.6 °F 52% 30.20 in 10.0 mi ENE 6.9 mph - N/A   Overcast
3:58 PM 38.1 °F 32.3 °F 23.5 °F 56% 30.22 in 10.0 mi ENE 8.1 mph - N/A   Overcast
4:58 PM 37.0 °F 29.8 °F 23.2 °F 57% 30.23 in 10.0 mi ENE 10.4 mph - N/A   Overcast
5:58 PM 36.0 °F 30.3 °F 23.7 °F 61% 30.25 in 10.0 mi East 6.9 mph - N/A   Overcast
6:58 PM 35.2 °F 30.3 °F 23.7 °F 63% 30.27 in 10.0 mi ENE 5.8 mph - N/A   Mostly Cloudy
7:58 PM 34.7 °F 28.1 °F 24.6 °F 67% 30.28 in 10.0 mi East 8.1 mph - N/A   Overcast
8:58 PM 34.0 °F 28.8 °F 25.3 °F 71% 30.30 in 10.0 mi East 5.8 mph - N/A   Overcast
9:34 PM 33.8 °F 27.0 °F 24.8 °F 70% 30.30 in 10.0 mi ENE 8.1 mph - N/A   Mostly Cloudy
9:55 PM 32.9 °F 25.9 °F 26.1 °F 76% 30.30 in 10.0 mi East 8.1 mph - N/A   Overcast
10:28 PM 32.0 °F 25.6 °F 24.8 °F 75% 30.30 in 10.0 mi ENE 6.9 mph - N/A   Overcast
10:58 PM 32.2 °F 27.7 °F 25.9 °F 78% 30.30 in 10.0 mi NE 4.6 mph - N/A   Overcast
11:04 PM 32.0 °F 27.5 °F 26.6 °F 80% 30.30 in 10.0 mi NE 4.6 mph - N/A   Overcast
11:55 PM 31.8 °F 26.2 °F 29.7 °F 92% 30.29 in 10.0 mi ENE 5.8 mph - N/A   Overcast